STARLINK-1870 (47156 NORAD) Tracking and Keplerian Element Data

This shows tracking and keplerian element data for the satellite.

Feedback or suggestion? Click here.




ElementValue
Catalog47156
NameSTARLINK-1870
Epoch Orbit181
Epoch Day99.91667824
Epoch Year2021
RAAN56.2455
Inclination53.0554
Eccentricity0.0010276
Argument of Perigee354.7741
Mean Anonmoly293.6469
Mean Motion15.33576636
Decay Rate4.989E-05
L11 47156U 20088AL 21099.91667824 .00004989 00000-0 16271-3 0 9995
L22 47156 53.0554 56.2455 0010276 354.7741 293.6469 15.33576636 1815

Live tracking and technical data element details for STARLINK-1870 (NORAD 47156). STARLINK-1870 can be tracked NOW for your location showing map with azimuth and elevation plus other details from your city location.

Track the satellite on the map from your city or location and see movement details for azimuth, elevation, latitude, longitude, range, height, and movement on the map or in text.







IsCatalogInMostPopularTable: catalog: 47156, numindb: 42
Update: records affected: 1



GetName: 47156 STARLINK-1870

Hit Count: updated at: Sat, 10 Apr 2021 19:05:59 GMT